カタリナ-リニア彗星

227P/Catalina-LINEAR (2024)

English version
Home page
Updated on May 2, 2025

---------------------------------------------------------------------

・ プロフィール

・ 写真集

・ 軌道要素

Epoch 2024 Mar. 31.0 TT = JDT 2460400.5
T 2024 Mar. 8.24960 TT                                  Rudenko
q   1.6236238            (2000.0)            P               Q
n   0.15475413     Peri.  105.56996     -0.78710727     -0.61182714
a   3.4359055      Node    36.80813     +0.50393545     -0.71105457
e   0.5274539      Incl.    7.50861     +0.35568413     -0.34650966
P   6.37
>From 487 observations 2017 Jan. 22-2024 Feb. 25, mean residual 0".3.

・ 星図

・ 光度変化

        m1 =  7.5 + 5 logΔ + 36   log r(t - 20)  [ ,0]  (              〜2024年 3月 8日)
        m1 = 10.8 + 5 logΔ + 20.0 log r(t - 30)  [0, ]  (2024年 3月 8日〜              )

---------------------------------------------------------------------

軌道要素はM.P.E.C. 2024-D126に掲載されたものです。
星図はステラナビゲータ Ver.11 (アストロアーツ) で作成したものです。
光度グラフはComet for Windowsで作成したものです。

---------------------------------------------------------------------

Copyright(C) Seiichi Yoshida (comet@aerith.net). All rights reserved.